Overview Statistics Trail Chart Weather Telemetry Raw packets
 

This is the latest recevied weather packets stored in our database for station/object N0HOT. If no packets are shown the sender has not sent any weather packets the latest 10 day(s).

<< 14 15 16 17 18 19 20 >>
Time Temp. Humidity Pressure Rain* Wind** Luminosity Snow
1788555302 31.11° C 65% 1011.8 hPa 0 mm - 204 W/m² -
1788554999 31.11° C 61% 1011.8 hPa 0 mm - 173 W/m² -
1788554694 31.67° C 64% 1011.8 hPa 0 mm - 266 W/m² -
1788554390 31.67° C 63% 1011.5 hPa 0 mm - 399 W/m² -
1788554086 32.22° C 65% 1011.5 hPa 0 mm - 303 W/m² -
1788553782 32.22° C 63% 1011.8 hPa 0 mm - 275 W/m² -
1788553478 32.22° C 63% 1011.8 hPa 0 mm - 208 W/m² -
1788553174 32.22° C 61% 1011.5 hPa 0 mm - 197 W/m² -
1788552869 32.22° C 59% 1011.5 hPa 0 mm - 599 W/m² -
1788552565 31.67° C 61% 1011.5 hPa 0 mm - 554 W/m² -
1788552263 31.67° C 62% 1011.1 hPa 0 mm - 558 W/m² -
1788551958 31.11° C 61% 1011.1 hPa 0 mm - 588 W/m² -
1788551656 31.11° C 62% 1011.1 hPa 0 mm - 580 W/m² -
1788551350 31.11° C 65% 1011.1 hPa 0 mm - 621 W/m² -
1788551050 31.11° C 61% 1011.1 hPa 0 mm - 678 W/m² -
1788550745 31.11° C 66% 1011.1 hPa 0 mm - 670 W/m² -
1788550441 31.11° C 68% 1011.1 hPa 0 mm - 669 W/m² -
1788550136 31.11° C 63% 1011.1 hPa 0 mm - 167 W/m² -
1788549831 31.11° C 62% 1011.5 hPa 0 mm - 179 W/m² -
1788549544 31.11° C 61% 1011.5 hPa 0 mm - 472 W/m² -
1788549224 31.11° C 62% 1011.1 hPa 0 mm - 311 W/m² -
1788548920 31.11° C 62% 1011.5 hPa 0 mm - 168 W/m² -
1788548615 30.56° C 61% 1011.5 hPa 0 mm - 238 W/m² -
1788548312 30.56° C 61% 1011.1 hPa 0 mm - 216 W/m² -
1788548007 30° C 64% 1011.5 hPa 0 mm - 785 W/m² -

* Rain latest hour (hover to see other rain measurements)
** Current wind speed in m/s (hover to see current wind gust speed)